Weather Roundup
Issued by NWS Chicago, IL

Home | Current Version | Previous Version | Graphics & Text | Print | Product List | Glossary On
Versions: 1 2 3 4 5 6 7 8 9 10 11 12 13 14 15 16 17 18 19 20 21 22 23 24 25 26 27 28 29 30 31 32 33 34 35 36 37 38 39 40 41 42 43 44 45 46 47 48 49 50
000
NZUS59 KLOT 221908
HRRLOT

CHICAGO AREA WEATHER ROUNDUP
NATIONAL WEATHER SERVICE CHICAGO/ROMEOVILLE IL
200 PM CDT FRI MAY 22 2015

NOTE: "FAIR" INDICATES FEW OR NO CLOUDS BELOW 12,000 FEET WITH NO
SIGNIFICANT WEATHER AND/OR OBSTRUCTIONS TO VISIBILITY.

* THESE STATIONS ARE NOT UNDER NWS QUALITY CONTROL. THEY ALSO MAY NOT
  REPORT WEATHER SUCH AS PRECIPITATION OR FOG.

ILZ005-006-012>014-019>023-222000-
NORTHEAST ILLINOIS

CITY           SKY/WX    TMP DP  RH WIND       PRES   REMARKS
OHARE          MOSUNNY   65  29  25 E9        30.24S
MIDWAY         MOSUNNY   68  30  24 E9        30.24S
AURORA         SUNNY     73  34  23 CALM      30.22S
LANSING*       SUNNY     63  37  39 NE9       30.25R
JOLIET*        SUNNY     73  42  33 CALM      30.22S
WAUKEGAN       SUNNY     57  27  31 NE8       30.26S
DUPAGE AIRPORT SUNNY     69  36  29 NE7       30.23R
WHEELING       SUNNY     61  28  28 NE8       30.27S
KANKAKEE*      SUNNY     73  43  33 N6        30.22S
MORRIS*        SUNNY     74  37  26 N3        30.20F
LEWIS AIRPORT* SUNNY     71  38  30 E9        30.23S
NORTHERLY IS     N/A     54  38  54 N12         N/A
$$

WIZ051-052-058>065-066-070>072-222000-
SOUTHEAST WISCONSIN

CITY           SKY/WX    TMP DP  RH WIND       PRES   REMARKS
MILWAUKEE      SUNNY     55  31  39 E8        30.28R
KENOSHA*       SUNNY     59  31  34 E8        30.27S
RACINE*        SUNNY     57  31  37 NE8       30.29R
BURLINGTON     SUNNY     65  32  28 CALM      30.24S
WAUKESHA       SUNNY     63  34  34 S6        30.25F
WEST BEND      MOSUNNY   64  32  29 E10       30.24S
$$

INZ001>003-010>013-019-020-222000-
NORTHWEST INDIANA

CITY           SKY/WX    TMP DP  RH WIND       PRES   REMARKS
GARY*          MOSUNNY   57  37  47 NE9       30.27R
MICHIGAN CITY* NOT AVBL
RENSSELAER*    NOT AVBL
VALPARAISO     SUNNY     70  31  23 N12       30.23S
$$

LMZ740>746-222000-
SOUTHERN LAKE MICHIGAN

STATION/POSITION TIME  SKY/WX   TEMP WIND        PRES    VSBY
                                AIR  DIR/SP/G
                 (UTC)          (F)  (DEG/KT/KT) (MB)    (MI)
HARRISON CRIB    1800            47  360/ 11/ 12   N/A
BURNHAM HARBOR   1900            54   10/ 12/ 13   N/A
CALUMET HARBOR   1800            53  360/ 10/ 14   N/A
BURNS HARBOR     1800            51   40/  9/ 10 1024.7S
MICHIGAN CITY    1800            49   10/ 11/ 12   N/A
$$

ABBREVIATIONS USED IN REMARKS
   TC - TEMPERATURE IN CELSIUS
  WCI - WIND CHILL INDEX
   HX - HEAT INDEX
  VSB - VISIBILITY
$$


USA.gov is the U.S. government's official web portal to all federal, state and local government web resources and services.